Springfield, OH

5:22 PM EST on November 19, 2017 (GMT -0500)
Springfield-Beckley Municipal

Weather History for KSGH - December, 2012

Change the Weather History Date:

Friday, December 7, 2012

  Actual Average (KFFO) Record (KFFO)
Temperature  
Mean Temperature 46 °F -  
Max Temperature 51 °F 42 °F 68 °F (1998)
Min Temperature 41 °F 28 °F 12 °F (2005)
Degree Days  
Heating Degree Days 19    
Moisture  
Dew Point 45 °F    
Average Humidity 96    
Maximum Humidity 100    
Minimum Humidity 87    
Precipitation  
Precipitation 0.57 in - - ()
Sea Level Pressure  
Sea Level Pressure 29.95 in    
Wind  
Wind Speed 4 mph (SSE)    
Max Wind Speed 12 mph    
Max Gust Speed -    
Visibility 2 miles    
Events Fog , Rain    
Averages and records for this station are not official NWS values.
T = Trace of Precipitation, MM = Missing Value Source: NWS Daily Summary

Daily Weather History Graph

Daily Weather History Graph

Search for Another Location

Airport or City:

Trip Planner

Search our weather history database for the weather conditions in past years. The results will help you decide how hot, cold, wet, or windy it might be!

Date:

Astronomy

Dec. 07, 2012 Rise Set
Actual Time 7:43 AM EST 5:10 PM EST
Civil Twilight 7:13 AM EST 5:40 PM EST
Nautical Twilight 6:39 AM EST 6:14 PM EST
Astronomical Twilight 6:06 AM EST 6:47 PM EST
Moon 1:02 AM EST (12/7) 1:06 PM EST (12/7)
Length of Visible Light 10h 27m
Length of Day
9h 26m
Last Quarter, 39% of the Moon is Illuminated
Dec 7
Last Quarter
Dec 13
New
Dec 20
First Quarter
Dec 28
Full
Jan 4
Last Quarter

Hourly Weather History & Observations

Time (EST) Temp. Windchill Dew Point Humidity Pressure Visibility Wind Dir Wind Speed Gust Speed Precip Events Conditions
12:03 AM 42.8 °F 41.1 °F 39.2 °F 87% 29.99 in 1.8 mi SSE 3.5 mph - 0.01 in Rain Light Rain
12:10 AM 42.8 °F 41.1 °F 39.2 °F 87% 29.99 in 2.5 mi South 3.5 mph - 0.01 in Rain Light Rain
12:18 AM 42.8 °F - 39.2 °F 87% 29.99 in 3.0 mi Calm Calm - 0.01 in Rain Light Rain
12:26 AM 42.8 °F - 39.2 °F 87% 29.99 in 2.5 mi Calm Calm - 0.01 in Rain Light Rain
12:56 AM 41.9 °F - 39.9 °F 93% 30.00 in 2.0 mi Calm Calm - 0.02 in Rain Light Rain
1:12 AM 42.8 °F 41.1 °F 39.2 °F 87% 29.98 in 1.2 mi SSE 3.5 mph - 0.02 in Rain Rain
1:29 AM 42.8 °F 41.1 °F 41.0 °F 93% 29.98 in 1.8 mi South 3.5 mph - 0.03 in Rain Light Rain
1:31 AM 42.8 °F 41.1 °F 41.0 °F 93% 29.98 in 2.0 mi South 3.5 mph - 0.03 in Rain Light Rain
1:36 AM 42.8 °F 40.1 °F 41.0 °F 93% 29.98 in 3.0 mi South 4.6 mph - 0.03 in   Overcast
1:41 AM 42.8 °F 40.1 °F 41.0 °F 93% 29.98 in 2.5 mi SSW 4.6 mph - 0.03 in Rain Light Rain
1:56 AM 41.9 °F 40.0 °F 41.0 °F 97% 30.00 in 1.2 mi SW 3.5 mph - 0.05 in Rain Light Rain
2:11 AM 42.8 °F 41.1 °F 42.8 °F 100% 29.98 in 1.0 mi SW 3.5 mph - 0.02 in Rain Light Rain
2:15 AM 42.8 °F 41.1 °F 42.8 °F 100% 29.98 in 1.5 mi SW 3.5 mph - 0.02 in Rain Light Rain
2:49 AM 44.6 °F 42.2 °F 42.8 °F 93% 29.98 in 2.0 mi SW 4.6 mph - 0.04 in Rain Light Rain
2:56 AM 43.9 °F 40.5 °F 43.0 °F 97% 29.99 in 2.0 mi SW 5.8 mph - 0.05 in   Overcast
3:09 AM 44.6 °F 40.7 °F 42.8 °F 93% 29.98 in 1.8 mi SW 6.9 mph - N/A   Overcast
3:56 AM 43.9 °F 40.5 °F 43.9 °F 100% 29.99 in 1.2 mi SW 5.8 mph - N/A   Overcast
4:08 AM 44.6 °F 41.4 °F 44.6 °F 100% 29.97 in 1.0 mi SW 5.8 mph - N/A   Overcast
4:20 AM 44.6 °F 40.7 °F 44.6 °F 100% 29.97 in 0.8 mi SW 6.9 mph - N/A   Overcast
4:27 AM 44.6 °F 40.7 °F 44.6 °F 100% 29.97 in 0.5 mi SW 6.9 mph - N/A Fog Fog
4:56 AM 45.0 °F 41.2 °F 43.9 °F 96% 29.99 in 0.2 mi SW 6.9 mph - N/A Fog Fog
5:56 AM 45.0 °F 42.6 °F 43.9 °F 96% 29.99 in 0.2 mi SW 4.6 mph - N/A Fog Fog
6:56 AM 45.0 °F 41.8 °F 43.9 °F 96% 30.01 in 0.5 mi SW 5.8 mph - N/A Fog Fog
7:38 AM 44.6 °F 41.4 °F 44.6 °F 100% 29.99 in 1.0 mi SSW 5.8 mph - N/A   Overcast
7:43 AM 44.6 °F 41.4 °F 44.6 °F 100% 30.00 in 1.5 mi SSW 5.8 mph - N/A   Overcast
7:56 AM 45.0 °F 43.5 °F 43.9 °F 96% 30.01 in 1.2 mi SSW 3.5 mph - N/A   Overcast
8:18 AM 44.6 °F - 44.6 °F 100% 30.00 in 1.8 mi Calm Calm - N/A   Overcast
8:25 AM 44.6 °F - 44.6 °F 100% 30.00 in 2.0 mi Calm Calm - N/A   Overcast
8:30 AM 44.6 °F - 44.6 °F 100% 30.00 in 1.2 mi Calm Calm - N/A   Overcast
8:56 AM 45.0 °F - 43.9 °F 96% 30.01 in 1.5 mi Calm Calm - N/A   Overcast
9:05 AM 44.6 °F - 44.6 °F 100% 30.00 in 1.2 mi Calm Calm - N/A   Overcast
9:22 AM 44.6 °F - 44.6 °F 100% 30.00 in 1.5 mi Calm Calm - N/A   Overcast
9:56 AM 45.0 °F - 45.0 °F 100% 30.03 in 1.2 mi Calm Calm - 0.00 in Rain Light Rain
10:20 AM 44.6 °F 43.1 °F 44.6 °F 100% 30.01 in 1.0 mi SSW 3.5 mph - 0.00 in Rain Light Rain
10:32 AM 44.6 °F - 44.6 °F 100% 30.01 in 1.2 mi Calm Calm - 0.01 in Rain Light Rain
10:48 AM 46.4 °F - 44.6 °F 93% 30.01 in 1.8 mi Calm Calm - 0.01 in Rain Light Rain
10:56 AM 45.9 °F - 45.0 °F 97% 30.02 in 1.8 mi Calm Calm - 0.01 in Rain Light Rain
11:22 AM 46.4 °F - 44.6 °F 93% 30.00 in 2.0 mi Calm Calm - 0.03 in Rain Light Rain
11:36 AM 46.4 °F - 44.6 °F 93% 29.99 in 1.8 mi Calm Calm - 0.03 in Rain Light Rain
11:43 AM 46.4 °F - 44.6 °F 93% 29.99 in 2.0 mi Calm Calm - 0.03 in Rain Light Rain
11:56 AM 45.9 °F - 45.0 °F 97% 29.99 in 2.0 mi Calm Calm - 0.04 in Rain Light Rain
12:03 PM 46.4 °F 45.2 °F 44.6 °F 93% 29.97 in 1.5 mi ENE 3.5 mph - 0.00 in Rain Light Rain
12:56 PM 45.9 °F - 45.0 °F 97% 29.97 in 2.0 mi Calm Calm - 0.03 in Rain Light Rain
1:37 PM 46.4 °F 44.3 °F 44.6 °F 93% 29.93 in 3.0 mi ESE 4.6 mph - 0.03 in Rain Light Rain
1:56 PM 45.9 °F 42.9 °F 43.9 °F 93% 29.94 in 2.5 mi East 5.8 mph - 0.04 in Rain Light Rain
2:26 PM 46.4 °F 43.5 °F 44.6 °F 93% 29.92 in 3.0 mi East 5.8 mph - 0.02 in Rain Light Rain
2:35 PM 46.4 °F 42.9 °F 44.6 °F 93% 29.91 in 2.5 mi East 6.9 mph - 0.03 in Rain Light Rain
2:56 PM 45.9 °F 41.7 °F 45.0 °F 97% 29.91 in 2.5 mi East 8.1 mph - 0.03 in Rain Light Rain
3:47 PM 46.4 °F 44.3 °F 46.4 °F 100% 29.91 in 2.5 mi East 4.6 mph - 0.00 in Rain Light Rain
3:56 PM 46.9 °F - 45.9 °F 96% 29.92 in 2.0 mi East 4.6 mph - 0.01 in Rain Light Rain
4:04 PM 46.4 °F 43.5 °F 46.4 °F 100% 29.90 in 1.5 mi East 5.8 mph - 0.02 in Rain Light Rain
4:42 PM 46.4 °F 42.9 °F 46.4 °F 100% 29.90 in 2.0 mi East 6.9 mph - 0.05 in Rain Light Rain
4:56 PM 46.9 °F - 45.9 °F 96% 29.93 in 2.5 mi Calm Calm - 0.08 in Rain Rain
5:03 PM 46.4 °F - 46.4 °F 100% 29.92 in 1.2 mi Calm Calm - 0.02 in Rain Rain
5:20 PM 46.4 °F 44.3 °F 46.4 °F 100% 29.90 in 1.8 mi East 4.6 mph - 0.08 in Rain Rain
5:34 PM 46.4 °F 41.9 °F 46.4 °F 100% 29.88 in 2.0 mi East 9.2 mph - 0.09 in Rain Light Rain
5:56 PM 46.9 °F - 45.9 °F 96% 29.90 in 3.0 mi East 5.8 mph - 0.09 in Rain Light Rain
6:56 PM 46.9 °F - 45.9 °F 96% 29.91 in 2.5 mi ESE 5.8 mph - 0.02 in Rain Light Rain
7:38 PM 46.4 °F 42.9 °F 44.6 °F 93% 29.88 in 2.5 mi ESE 6.9 mph - 0.05 in Rain Light Rain
7:46 PM 46.4 °F 42.9 °F 44.6 °F 93% 29.88 in 3.0 mi ESE 6.9 mph - 0.05 in   Overcast
7:56 PM 45.9 °F 42.9 °F 45.9 °F 100% 29.89 in 4.0 mi ESE 5.8 mph - 0.05 in   Overcast
8:20 PM 46.4 °F 42.9 °F 46.4 °F 100% 29.88 in 4.0 mi ESE 6.9 mph - N/A   Overcast
8:43 PM 46.4 °F 43.5 °F 46.4 °F 100% 29.87 in 3.0 mi SE 5.8 mph - N/A   Overcast
8:56 PM 46.9 °F - 46.9 °F 100% 29.88 in 4.0 mi ESE 6.9 mph - N/A   Overcast
9:31 PM 46.4 °F 43.5 °F 46.4 °F 100% 29.86 in 2.0 mi ESE 5.8 mph - 0.00 in   Overcast
9:39 PM 46.4 °F 43.5 °F 46.4 °F 100% 29.86 in 1.5 mi SE 5.8 mph - 0.00 in   Overcast
9:56 PM 47.8 °F - 46.9 °F 97% 29.86 in 0.8 mi SSE 6.9 mph - 0.04 in Rain Rain
10:08 PM 48.2 °F - 48.2 °F 100% 29.85 in 1.0 mi South 5.8 mph - 0.00 in   Overcast
10:15 PM 48.2 °F - 48.2 °F 100% 29.85 in 0.8 mi South 5.8 mph - 0.00 in Rain Light Rain
10:49 PM 48.2 °F - 48.2 °F 100% 29.85 in 1.0 mi South 6.9 mph - 0.01 in   Overcast
10:56 PM 48.9 °F - 48.9 °F 100% 29.85 in 1.0 mi South 5.8 mph - 0.01 in   Overcast
11:12 PM 50.0 °F - 48.2 °F 94% 29.85 in 1.5 mi SSW 8.1 mph - N/A   Overcast
11:21 PM 50.0 °F - 50.0 °F 100% 29.85 in 2.5 mi SW 9.2 mph - N/A   Overcast
11:34 PM 51.8 °F - 50.0 °F 94% 29.85 in 3.0 mi SW 11.5 mph - N/A   Overcast
11:56 PM 50.9 °F - 50.0 °F 97% 29.85 in 4.0 mi SW 11.5 mph - N/A   Overcast